Location: Autingues
(50.8400°N, 1.9737°E)
Time: 12:52:16
(UTC+00:00)

Daily predictions for brighter satellites

Satellite Brightness Start Highest point End
(mag) Time Altitude Azimuth Time Altitude Azimuth Time Altitude Azimuth
NOSS 3-1 (C) 4.1 17:02:56 10° NW 17:10:14 85° NE 17:18:49 10° SE
NOAA 11 4.2 17:05:31 10° SSE 17:11:00 75° ENE 17:16:30 10° NNW
AQUARIUS 4.2 17:07:17 10° SSE 17:11:46 82° ENE 17:16:18 10° NNW
COSMO-SKYMED 1 3.8 17:09:22 10° NE 17:12:52 23° E 17:16:21 10° SE
BREEZE-M DEB (TANK) 1.9 17:11:54 10° W 17:14:26 68° S 17:16:41 10° E
Aureole 3 2.7 17:13:04 10° N 17:16:11 57° ENE 17:19:06 10° SSE
Cosmos 1937 Rocket 4.4 17:12:11 10° SSE 17:16:42 29° E 17:21:13 10° NE
Okean 1-7 Rocket 3.6 17:14:07 10° S 17:18:40 75° E 17:23:16 10° NNE
USA 290 3.2 17:17:21 10° N 17:20:06 25° NE 17:22:49 10° ESE
Cosmos 1833 Rocket 2.9 17:18:22 10° NNW 17:23:50 48° NE 17:29:16 10° SE
NOSS 2-1 (C) 3.5 17:20:53 10° SSW 17:24:00 39° SE 17:27:19 10° NE
H-2A R/B 2.8 17:25:06 10° ESE 17:29:31 30° ENE 17:34:03 10° N
Cosmos 2344 4.3 17:21:05 10° NW 17:29:55 74° NE 17:42:12 10° SE
NOSS 2-1 (D) 3.3 17:26:44 10° SSW 17:29:55 45° SE 17:33:06 11° NE
Meteor 1-21 Rocket 4.2 17:24:52 10° S 17:30:19 62° E 17:35:52 10° NNE
H-2A R/B 2.0 17:25:56 10° NNE 17:30:21 73° ESE 17:34:38 10° S
Cosmos 1939 Rocket 2.8 17:27:30 10° SSE 17:31:32 65° ENE 17:35:32 10° N
USA 229 DEB 3.9 17:24:29 10° NW 17:31:45 85° NE 17:39:26 10° SE
USA 229 3.9 17:24:35 10° NW 17:31:51 85° NE 17:39:33 10° SE
Helios 1A Rocket 4.2 17:28:53 10° ESE 17:32:03 22° ENE 17:35:14 10° N
Cosmos 389 Rocket 4.5 17:31:03 10° NE 17:32:01 11° NE 17:32:01 11° NE
CZ-3B R/B 1.6 17:31:13 10° WNW 17:33:31 86° SSW 17:39:21 10° ESE
Cosmos 44 3.4 17:29:09 10° SSW 17:34:00 75° SE 17:39:11 10° NE
SeaSat 1 3.2 17:29:32 10° NNE 17:34:20 52° NW 17:39:07 10° SW
Cosmos 1602 Rocket 3.9 17:30:21 10° SSE 17:34:29 44° E 17:38:42 10° NNE
Cosmos 2026 Rocket 4.4 17:30:11 10° SSE 17:35:53 41° E 17:41:43 10° NNE
Cosmos 2112 Rocket 4.1 17:31:23 10° NNW 17:36:39 81° WSW 17:41:50 10° SSE
Feng Yun 1-1 Rocket 4.2 17:31:31 10° SSE 17:36:58 66° ENE 17:42:35 10° NNW
SJ 16-02 1.7 17:32:59 10° SSW 17:37:21 66° WNW 17:41:45 10° NNE
Cosmos 1689 Rocket 4.2 17:41:34 12° ESE 17:41:34 12° ESE 17:42:07 10° ESE
Cosmos 1553 Rocket 4.5 17:34:49 10° N 17:40:47 38° ENE 17:46:37 10° SE
Cosmos 990 Rocket 4.0 17:35:43 10° S 17:40:51 67° ESE 17:46:01 10° NNE
YAOGAN 1 3.2 17:37:06 10° SE 17:40:57 32° ENE 17:44:50 10° N
Aureole 3 Rocket 2.9 17:38:50 10° N 17:41:53 41° ENE 17:45:32 10° SSE
Cosmos 1844 Rocket 3.1 17:36:53 10° SW 17:42:31 66° WNW 17:48:10 10° NNE
H-2A R/B 4.0 17:39:02 10° S 17:43:00 42° W 17:47:08 10° NNW
COSMOS 2406 3.2 17:37:29 10° NNW 17:43:17 72° ENE 17:49:02 10° SE
Cosmos 2082 Rocket 2.6 17:38:10 10° NNW 17:43:35 41° NE 17:48:58 10° ESE
Cosmos 1818 4.1 17:38:45 10° WSW 17:44:07 58° NW 17:49:33 10° NE
Cosmos 1844 4.0 17:40:51 10° SW 17:46:33 74° WNW 17:52:21 10° NNE
NOSS 3-1 (A) 4.1 17:40:02 10° NW 17:47:23 89° NE 17:55:59 10° SE
Cosmos 1703 3.1 17:44:36 10° S 17:48:27 69° E 17:52:19 10° NNE
X-37B 2.5 17:45:51 10° WSW 17:48:33 25° S 17:51:15 10° SE
Cosmos 1825 Rocket 4.4 17:45:55 10° SSE 17:49:39 28° E 17:53:25 10° NNE
IRS-1C Rocket 4.1 17:45:17 10° SSE 17:50:28 63° ENE 17:55:41 10° N
Cosmos 1812 Rocket 3.4 17:46:41 10° N 17:51:05 79° E 17:55:26 10° SSE
ISS -3.7 17:48:17 10° W 17:51:41 76° N 17:53:50 21° E
ATLAS 2AS CENTAUR R/B 4.1 17:47:57 10° WNW 17:54:55 32° N 18:00:54 13° NE
Okean O Rocket 2.9 17:52:07 10° S 17:56:22 45° W 18:00:38 10° NNW
ATLAS 5 CENTAUR R/B 3.5 17:53:40 10° WNW 17:57:11 22° NNW 18:00:57 11° NE
Iridium 4 Rocket 3.5 17:53:59 10° N 17:59:24 61° E 18:04:19 10° SSE
CZ-4 R/B 1.4 17:56:37 10° SSE 18:00:32 53° ENE 18:04:24 10° N
ERS-2 2.8 17:58:38 15° NE 18:01:11 33° E 18:04:31 10° SSE
SKYMED 2 3.5 17:56:53 10° NNE 18:01:14 65° ESE 18:05:32 10° S
Cosmos 2195 Rocket 4.5 17:57:08 10° S 18:03:26 74° E 18:09:46 10° NNE
CSL-04 Rocket 4.1 18:00:01 10° SE 18:05:05 41° ENE 18:10:14 10° N
CZ-4C R/B 3.8 18:02:13 10° WNW 18:07:18 27° N 18:11:46 15° NE
S3M 4.3 18:01:36 10° N 18:07:20 40° ENE 18:13:04 10° SE
Okean-O 2.6 18:03:41 10° SSE 18:08:02 59° ENE 18:12:25 10° N
USA 234 3.7 18:05:52 18° ENE 18:10:40 53° N 18:16:59 10° WNW
Ariane Rocket 4.4 18:11:25 19° NE 18:11:25 19° NE 18:14:44 10° NNE
Cosmos 1428 Rocket 4.5 18:05:10 10° S 18:11:26 71° E 18:17:44 10° NNE
Cosmos 1340 2.7 18:08:13 10° SSW 18:11:59 82° WNW 18:15:45 10° N
Cosmos 1346 Rocket 3.1 18:08:48 10° SSE 18:12:31 42° E 18:15:11 17° NNE
Cosmos 2278 Rocket 2.4 18:07:19 10° S 18:12:46 50° ESE 18:17:11 16° NE
Cosmos 858 Rocket 4.4 18:09:30 10° SSW 18:14:47 77° ESE 18:20:05 10° NNE
Cosmos 1953 Rocket 4.1 18:12:10 10° SSE 18:16:04 33° E 18:17:58 23° NE
CZ-2C R/B 3.4 18:11:07 10° S 18:16:39 78° WSW 18:22:27 10° NNW
SAR-Lupe-4 3.9 18:17:51 29° NE 18:19:10 42° E 18:22:35 10° S
Cosmos 2292 Rocket 4.1 18:16:43 10° SSE 18:20:41 30° E 18:20:41 30° E
Cosmos 405 3.5 18:17:49 10° NNW 18:21:20 59° W 18:24:47 10° S
COSMOS 2455 4.2 18:16:39 10° W 18:22:02 33° NW 18:27:27 10° NNE
Cosmos 44 Rocket 4.3 18:18:49 10° S 18:22:54 26° ESE 18:23:19 26° ESE
NOSS 2-1 (E) 3.3 18:21:49 10° SW 18:25:05 62° NW 18:26:46 28° NNE
TELKOM 3 4.0 18:26:43 10° W 18:28:34 38° SW 18:28:34 38° SW
Cosmos 1869 3.5 18:25:49 10° N 18:29:34 44° ENE 18:30:11 40° ESE
ARGOS 3.1 18:24:52 10° SSE 18:30:10 65° ENE 18:35:31 10° N
NOSS 2-2 (D) 4.4 18:25:30 10° NW 18:30:21 51° NE 18:33:29 28° E
Meteor 2-19 Rocket 4.4 18:26:07 10° S 18:32:17 78° E 18:38:27 10° NNE
PSLV R/B 3.9 18:28:23 10° NNE 18:32:32 69° ESE 18:36:43 10° S
SAR-Lupe-1 3.9 18:34:04 38° NE 18:35:16 66° ESE 18:38:50 10° S
Cosmos 1898 Rocket 4.1 18:30:39 10° SW 18:35:49 57° WNW 18:40:59 10° NNE
CZ-4B R/B 2.6 18:33:00 10° N 18:36:10 41° WNW 18:39:13 10° SW
Cosmos 372 Rocket 3.9 18:31:16 10° S 18:36:25 66° ESE 18:39:58 21° NNE
Cosmos 468 4.4 18:31:27 10° NNW 18:36:43 68° ENE 18:41:13 14° SE
Cosmos 1092 Rocket 4.4 18:30:58 10° SSW 18:37:03 63° WNW 18:43:10 10° N
CZ-2C R/B 3.1 18:33:46 18° NE 18:37:27 38° E 18:42:40 10° SSE
Cosmos 494 Rocket 4.1 18:35:36 10° NNW 18:40:39 52° ENE 18:42:29 35° ESE
MOS 1 Rocket 3.6 18:39:47 10° N 18:44:01 60° WNW 18:48:17 10° SSW
Cosmos 2150 Rocket 4.3 18:40:53 10° S 18:45:43 42° ESE 18:45:59 42° E
Cosmos 1048 Rocket 3.8 18:40:33 10° NNW 18:45:43 77° ENE 18:49:36 18° SSE
Cosmos-2242 3.7 18:41:44 10° NNW 18:45:57 55° W 18:50:09 10° S
COSMO-SKYMED 1 3.6 18:45:05 10° N 18:49:15 45° WNW 18:53:22 10° SW
Meteor 1-11 4.4 18:46:45 10° SSW 18:52:26 73° WNW 18:58:04 10° N
Cosmos 1758 Rocket 4.3 18:51:02 10° SSW 18:55:24 54° WNW 18:59:51 10° N
Cosmos 1937 Rocket 4.3 18:53:14 10° SW 18:58:25 51° WNW 19:03:19 12° NNE
SL-08 RB Rocket 3.5 18:59:18 26° SSE 19:01:50 85° ENE 19:06:21 10° NNW
CSL-04 Debris 4.3 18:58:41 10° S 19:04:03 72° WSW 19:09:29 10° NNW
Cosmos 2221 3.7 19:01:14 10° N 19:03:42 31° N 19:03:42 31° N
Helios 1A Rocket 3.8 19:02:54 10° S 19:06:55 49° W 19:10:58 10° NNW
Cosmos 389 Rocket 3.8 19:03:53 10° NNW 19:05:55 32° NNW 19:05:55 32° NNW
Cosmos 1833 Rocket 4.2 19:02:35 10° NW 19:07:38 35° WSW 19:12:39 10° S
H-2A R/B 3.0 19:03:51 10° S 19:08:44 47° W 19:13:49 10° NNW
Cosmos 1125 Rocket 4.3 19:05:19 10° S 19:08:41 36° SSE 19:08:41 36° SSE
Cosmos 1809 Rocket 4.3 19:04:52 10° S 19:10:58 72° E 19:17:07 10° NNE
Cosmos 1689 Rocket 4.5 19:13:25 20° SW 19:13:25 20° SW 19:14:33 10° SW
Cosmos 2298 Rocket 3.9 19:07:40 10° SSW 19:12:58 75° ESE 19:13:35 66° ENE
Cosmos 2266 Rocket 3.8 19:08:57 10° S 19:15:08 71° E 19:21:14 10° NNE
SJ 16-02 4.2 19:15:02 10° WNW 19:16:51 12° NW 19:18:42 10° NNW
YAOGAN 1 4.3 19:13:09 10° SSW 19:17:03 32° W 19:20:58 10° NNW
NOSS 2-2 (C) 4.2 19:13:18 10° NW 19:18:31 87° NE 19:20:07 54° SE
X-37B 3.7 19:23:17 10° SW 19:23:54 11° SW 19:23:54 11° SW
In-Cosmos 22 Rocket 4.1 19:19:03 10° SSW 19:24:50 88° W 19:29:35 15° NNE
Cosmos 2082 Rocket 3.3 19:22:22 10° NW 19:27:45 44° WSW 19:33:05 10° S
ISS -1.5 19:25:10 10° WNW 19:26:49 26° W 19:26:49 26° W
NOSS 3-4 (A) 4.5 19:24:16 10° NW 19:30:15 35° NNE 19:30:38 35° NNE
NOSS 3-4 (C) 4.5 19:24:23 10° NW 19:30:22 35° NNE 19:30:44 35° NNE
Cosmos 1241 Rocket 4.4 19:26:14 10° SSW 19:32:42 77° SE 19:33:16 71° E
ERS-2 4.4 19:33:12 19° NNW 19:34:35 23° WNW 19:37:31 10° WSW
CZ-4 R/B 4.2 19:33:10 10° SW 19:35:51 17° W 19:38:32 10° NW
MetOp-A 4.1 19:37:46 80° WSW 19:37:52 81° WSW 19:43:17 10° NNW
Meteor 2-21 4.4 19:34:39 10° SSW 19:40:45 83° WNW 19:46:57 10° N
ATLAS 5 CENTAUR R/B 3.8 19:39:37 10° NW 19:42:29 21° N 19:42:29 21° N
Cosmos 2315 Rocket 3.9 19:38:56 10° NNW 19:45:11 81° W 19:46:33 57° S
ATLAS 2AS CENTAUR R/B 3.7 19:40:57 10° NW 19:47:59 36° NNE 19:48:21 36° NNE
Meteor 2-14 Rocket 4.5 19:42:42 10° SSW 19:48:47 76° WNW 19:54:56 10° N
Ariane Rocket 4.0 19:51:36 38° NNW 19:51:36 38° NNW 19:54:43 10° NNW
IRS-1A Rocket 4.4 19:51:15 78° WNW 19:51:15 78° WNW 19:56:52 10° NNW
USA 234 3.3 19:53:13 64° NNE 19:53:14 64° NNE 19:59:43 10° WNW
Cosmos 2278 Rocket 3.5 19:51:49 10° WSW 19:57:03 37° NW 19:59:05 28° N
CZ-4C R/B 3.5 19:51:30 10° NW 19:56:57 38° NNE 19:56:57 38° NNE
USA 281 4.0 20:04:50 40° N 20:04:50 40° N 20:09:14 10° NNW
CZ-2C R/B 3.8 20:15:09 26° NNW 20:17:46 41° WNW 20:23:00 10° SW
ATLAS 2AS CENTAUR R/B 4.5 21:32:31 10° NW 21:35:47 28° NW 21:35:47 28° NW
